Showing default

IRIDIUM 133, 42955

Orbit data source: Space-Track

IRIDIUM 133, 42955 is a payload satellite owned by Iridium (US) in LEO that was launched on Mon, 09 Oct 2017 UTC via an FALCON 9 launch vehicle from the Air Force Western Test Range (AFWTR). Payloads include a variety of satellites, spacecraft, and rockets equipped with specific instruments for various scientific and technological missions. These include communications satellites like Starlink; space stations such as the ISS; scientific satellites like the Hubble; Earth observation satellites from companies like Planet Labs, Umbra, and HawkEye 360; GPS; miniature CubeSats for education and research; and military/defense satellites.

Loading next visibility...
IRIDIUM 133 details
Identifier
42955, 2017-061A
Orbit
LEO
Last TLE update9 hours ago
Origin
Flag of USIridium (US)
ManufacturerOATK SSG Gilbert
MissionOperational Commercial Communications
Bus & MotorELITEBUS, Unknown motor
Mass860 kg wet, 700 kg dry
Launch date (UTC)
2017-10-09 (7 years ago)
Launch vehicle
FALCON 9
Launch site
Air Force Western Test Range (AFWTR)
Object type
Payload
Rocket body
Debris
Shape & HBRTrap Box + 2 Pan, 9.4 m
Radar Cross Section14.423 m², Large (>1 m²)

Expand to show TLE details & history

TLE from 9 hours ago
0 IRIDIUM 133
1 42955U 17061A   24361.53489192  .00000283  00000-0  94007-4 0  9994
2 42955  86.3969 249.8981 0002005  83.5414 276.6010 14.34217916377716
Epoch: 2024-12-26T12:50Z
Definitive object data (Epoch: 2024-12-26T12:50:14.661Z)
Latitude-0.00005°
Longitude-38.17589°
Altitude780.553 km
Speed7.464 km/s
True Right ascension16h 39m 35s
True Declination0° 00' 00"
Sunlit
Object was in daylight at TLE epoch
Visualization TLE readout
Latitude85.76254°
Longitude19.38052°
Altitude790.039 km
Speed7.466 km/s
Apparent Right ascension09h 03m 42s
Apparent Declination34° 57' 07"
Sunlit
Object is in daylight
Visualization observer readout
Local Sidereal Time21:00:02
Azimuth359.223° N
Elevation-15.127°
Doppler factor1
Orbital elements
Apogee altitude776.065 km
Perigee altitude773.197 km
Semi-major axis7,152.768 km
Eccentricity0.0002005
Inclination86.3969°
RAAN249.8981°
Arg. of periapsis83.5414°
True anomaly276.57818°
Mean anomaly276.601°
Eccentric anomaly276.58959°
Mean motion3.58783 °/min
BSTAR0.000094007
Orbital period100.34 mins
Loading maneuver chart data...
Loading historical data...
Loading historical data...
Loading historical data...
Loading historical data...
Loading historical data...
Loading historical data...
Loading historical data...

IRIDIUM 133 Visibility forecast

Observer location: undefined°, undefined

Span
Click to sort rows by Start time (UTC) header in descending order
Start Az.
Max El. time (UTC)
Max El. Az.
Max El.
End time (UTC)
End Az.
9 mins2024-12-27 04:29:01.199Z12.108° NNE2024-12-27 04:33:01.199Z71.295° E35.989°2024-12-27 04:38:01.199Z156.516° SSE
5 mins2024-12-27 06:12:01.199Z303.223° NW2024-12-27 06:14:01.199Z274.5° WNW17.577°2024-12-27 06:17:01.199Z238.343° WSW
8 mins2024-12-27 17:26:01.199Z187.534° SSW2024-12-27 17:29:01.199Z229.341° WSW44.119°2024-12-27 17:34:01.199Z359.652° N
|